Overview Statistics Trail Chart Weather Telemetry Raw packets
 

This is the latest recevied weather packets stored in our database for station/object N0QV. If no packets are shown the sender has not sent any weather packets the latest 10 day(s).

<< 40 41 42 43 44 45 46 >>
Time Temp. Humidity Pressure Rain* Wind** Luminosity Snow
1788397171 27.22° C 79% 1010.4 hPa 0 mm - 0 W/m² -
1788396861 27.22° C 78% 1010.5 hPa 0 mm - 0 W/m² -
1788396558 27.78° C 78% 1010.3 hPa 0 mm - 2 W/m² -
1788396258 27.78° C 78% 1010.3 hPa 0 mm - 3 W/m² -
1788395953 27.78° C 77% 1010.6 hPa 0 mm - 6 W/m² -
1788395648 28.33° C 76% 1010.5 hPa 0 mm - 9 W/m² -
1788395347 28.33° C 76% 1010.5 hPa 0 mm - 12 W/m² -
1788395042 28.33° C 76% 1010.6 hPa 0 mm - 15 W/m² -
1788394742 28.89° C 74% 1010.5 hPa 0 mm - 19 W/m² -
1788394438 28.89° C 73% 1010.5 hPa 0 mm - 21 W/m² -
1788394137 28.89° C 72% 1010.3 hPa 0 mm - 23 W/m² -
1788393832 29.44° C 71% 1010.2 hPa 0 mm - 26 W/m² -
1788393530 29.44° C 69% 1010.6 hPa 0 mm - 28 W/m² -
1788393226 29.44° C 68% 1010.6 hPa 0 mm - 30 W/m² -
1788392926 29.44° C 68% 1010.5 hPa 0 mm - 33 W/m² -
1788392626 30° C 68% 1010.5 hPa 0 mm - 35 W/m² -
1788392325 30° C 66% 1010.4 hPa 0 mm - 36 W/m² -
1788392025 30° C 66% 1010.5 hPa 0 mm - 38 W/m² -
1788391723 30° C 65% 1010.6 hPa 0 mm - 40 W/m² -
1788391418 30° C 63% 1010.7 hPa 0 mm - 43 W/m² -
1788391118 30° C 63% 1010.5 hPa 0 mm - 45 W/m² -
1788390814 30° C 63% 1010.5 hPa 0 mm - 46 W/m² -
1788390509 30.56° C 64% 1010.7 hPa 0 mm - 47 W/m² -
1788390208 30.56° C 62% 1010.5 hPa 0 mm - 57 W/m² -
1788389908 30.56° C 61% 1010.6 hPa 0 mm - 60 W/m² -

* Rain latest hour (hover to see other rain measurements)
** Current wind speed in m/s (hover to see current wind gust speed)